Regional Weather Roundup
Issued by NWS Bismarck, ND

Home | Current Version | Previous Version | Text Only | Print | Product List | Glossary On
Versions: 1 2 3 4 5 6 7 8 9 10 11 12 13 14 15 16 17 18 19 20 21 22 23 24 25 26 27 28 29 30 31 32 33 34 35 36 37 38 39 40 41 42 43 44 45 46 47 48 49 50
000
ASUS43 KBIS 052102
RWRBIS

NWR BROADCAST TEXT
NATIONAL WEATHER SERVICE BISMARCK ND
400 PM CDT SUN JUL 05 2015

NOTE: "FAIR" INDICATES FEW OR NO CLOUDS BELOW 12,000 FEET WITH NO
SIGNIFICANT WEATHER AND/OR OBSTRUCTIONS TO VISIBILITY.


CITY           SKY/WX    TMP DP  RH WIND       PRES   REMARKS
WILLISTON      CLOUDY    75  49  39 N16G24    29.99R
MINOT          CLOUDY    74  60  61 NW10      29.90R HAZE
MINOT AFB      NOT AVBL
BISMARCK       PTSUNNY   76  61  59 N14G23    29.88R
DICKINSON      CLOUDY    67  57  70 N16       29.96R HAZE
GARRISON         N/A     73  55  53 N13       29.91R
HETTINGER ARPT CLOUDY    71  59  65 N15G23    29.98R
JAMESTOWN      PTSUNNY   77  66  68 NW16G24   29.81R
HAZEN          FAIR      70  59  68 N12       29.92R
OAKES            N/A     81  75  83 NW10      29.78R
STANLEY        FAIR      70  59  68 N10G18    29.97R HAZE
$$

CITY           SKY/WX    TMP DP  RH WIND       PRES   REMARKS
GRAND FORKS    CLOUDY    73  67  81 VRB5      29.78R
GRAND FORKS AF CLOUDY    73  67  83 N8        29.79R
DEVILS LAKE    PTSUNNY   73  63  68 N14G20    29.83R
FARGO          CLOUDY    83  69  62 NW9       29.74R
CAVALIER       CLOUDY    70  66  88 N9        29.80R FOG
GRAFTON        MOCLDY    73  70  88 NW10      29.79R
GWINNER        FAIR      82  72  69 NW6       29.77S
LANGDON        FAIR      73  63  68 N13       29.85R HAZE
$$

CITY           SKY/WX    TMP DP  RH WIND       PRES   REMARKS
ABERDEEN       CLOUDY    89  70  53 CALM      29.75S HX  94
MOBRIDGE       PTSUNNY   85  67  54 N13       29.81R
BUFFALO          N/A     73  56  54 N24       29.92R
RAPID CITY     PTSUNNY   79  65  62 N18G26    29.91R
GLASGOW        MOSUNNY   69  51  52 NW13      30.06S
SIDNEY         CLOUDY    73  48  40 NW10      30.00R
WOLF POINT     PTSUNNY   72  50  45 NW9       30.04R
GLENDIVE       CLOUDY    72  48  43 N13       30.03R
MILES CITY     LGT RAIN  71  52  50 N9        30.04S
BAKER          LGT RAIN  63  57  81 N12       30.03S
$$

CITY           SKY/WX    TMP DP  RH WIND       PRES   REMARKS
BILLINGS       CLOUDY    64  47  53 NE12      30.12F
GREAT FALLS    RAIN      51  50  96 NE8       30.19R FOG
$$




USA.gov is the U.S. government's official web portal to all federal, state and local government web resources and services.